{"data":{"norad_id":62220,"intl_designator":"2024-231C","name":"STARLINK-11466 [DTC]","alt_names":[],"object_type":"PAYLOAD","status":"ACTIVE","operator":null,"country":"US","launch_date":"2024-12-05","launch_site_code":"AFWTR","launch_vehicle":null,"mission":null,"orbit_class":"UNKNOWN","rcs_meters":null,"size_class":null,"mass_kg":null,"dimensions":null,"purposes":["comms"],"wikipedia_slug":null,"has_3d_model":false,"image_url":null,"decayed_at":null,"tle_current":{"epoch":"2026-05-25T02:56:01.477248Z","epoch_age_seconds":58406,"freshness":"FRESH","line1":"1 62220U 24231C   26145.12223932  .00153171  00000+0  12435-2 0  9990","line2":"2 62220  53.1564  84.6621 0000928  75.2710 284.8411 15.69757094 85415","mean_motion":15.69757094,"eccentricity":9.28e-5,"inclination_deg":53.1564,"raan_deg":84.6621,"arg_perigee_deg":75.271,"mean_anomaly_deg":284.8411,"bstar":0.0012435,"rev_number":8541,"period_min":91.733938040735,"perigee_km":358.96672753747,"apogee_km":360.21725003779,"semimajor_km":6737.7289887876,"source":"CELESTRAK","updated_at":"2026-05-25T13:38:19.613364Z"}}}